TimeCST,TemperatureF,Dew PointF,Humidity,Sea Level PressureIn,VisibilityMPH,Wind Direction,Wind SpeedMPH,Gust SpeedMPH,PrecipitationIn,Events,Conditions,WindDirDegrees,DateUTC
12:15 AM,43.3,34.9,72,29.67,10.0,SSE,10.4,-,N/A,,Clear,160,2013-11-16 06:15:00
12:35 AM,43.2,34.7,72,29.67,10.0,SSE,11.5,-,N/A,,Clear,150,2013-11-16 06:35:00
12:55 AM,42.3,34.3,74,29.67,10.0,SSE,9.2,-,N/A,,Clear,160,2013-11-16 06:55:00
1:15 AM,41.9,34.2,74,29.66,10.0,SSE,10.4,-,N/A,,Clear,160,2013-11-16 07:15:00
1:35 AM,41.9,34.3,75,29.66,10.0,SSE,10.4,-,N/A,,Clear,160,2013-11-16 07:35:00
1:55 AM,41.5,34.7,77,29.66,10.0,SSE,9.2,-,N/A,,Clear,160,2013-11-16 07:55:00
2:15 AM,41.9,34.9,76,29.65,10.0,SSE,11.5,-,N/A,,Scattered Clouds,160,2013-11-16 08:15:00
2:35 AM,42.4,35.1,75,29.64,10.0,SSE,11.5,19.6,N/A,,Scattered Clouds,150,2013-11-16 08:35:00
2:55 AM,43.0,35.4,75,29.63,10.0,SSE,12.7,21.9,N/A,,Clear,150,2013-11-16 08:55:00
3:15 AM,43.0,35.6,75,29.62,10.0,SE,10.4,-,N/A,,Mostly Cloudy,140,2013-11-16 09:15:00
3:35 AM,42.8,35.8,76,29.61,10.0,SE,9.2,-,N/A,,Overcast,140,2013-11-16 09:35:00
3:55 AM,42.8,36.0,77,29.61,10.0,SE,8.1,-,N/A,,Overcast,140,2013-11-16 09:55:00
4:15 AM,43.3,36.5,77,29.60,10.0,SE,6.9,-,N/A,,Overcast,130,2013-11-16 10:15:00
4:35 AM,43.3,36.7,77,29.59,10.0,SE,8.1,-,N/A,,Overcast,130,2013-11-16 10:35:00
4:55 AM,42.8,36.7,79,29.59,10.0,SE,6.9,-,N/A,,Mostly Cloudy,140,2013-11-16 10:55:00
5:15 AM,41.9,36.5,81,29.58,10.0,SE,3.5,-,N/A,,Clear,140,2013-11-16 11:15:00
5:35 AM,40.5,36.3,85,29.58,10.0,SE,5.8,-,N/A,,Clear,130,2013-11-16 11:35:00
5:55 AM,40.5,36.9,87,29.57,10.0,SE,8.1,-,N/A,,Scattered Clouds,140,2013-11-16 11:55:00
6:15 AM,41.2,37.4,86,29.57,10.0,SSE,8.1,-,N/A,,Mostly Cloudy,150,2013-11-16 12:15:00
6:35 AM,41.7,37.8,86,29.56,10.0,SE,11.5,-,N/A,,Scattered Clouds,140,2013-11-16 12:35:00
6:55 AM,41.9,37.9,86,29.56,10.0,SE,10.4,-,N/A,,Clear,140,2013-11-16 12:55:00
7:15 AM,41.7,38.3,88,29.55,10.0,SSE,10.4,-,N/A,,Clear,150,2013-11-16 13:15:00
7:35 AM,41.9,39.0,90,29.56,10.0,SSE,11.5,-,N/A,,Scattered Clouds,150,2013-11-16 13:35:00
7:55 AM,43.2,39.6,87,29.55,10.0,SSE,12.7,-,N/A,,Overcast,150,2013-11-16 13:55:00
8:15 AM,44.1,40.1,86,29.55,10.0,SSE,12.7,18.4,N/A,,Overcast,150,2013-11-16 14:15:00
8:35 AM,44.6,40.5,85,29.55,10.0,SSE,12.7,16.1,N/A,,Overcast,150,2013-11-16 14:35:00
8:55 AM,45.1,41.0,85,29.54,10.0,SSE,11.5,-,N/A,,Overcast,150,2013-11-16 14:55:00
9:15 AM,45.1,41.0,85,29.54,10.0,SSE,13.8,17.3,N/A,,Overcast,150,2013-11-16 15:15:00
9:35 AM,45.1,41.5,87,29.54,10.0,SSE,15.0,19.6,N/A,,Overcast,150,2013-11-16 15:35:00
9:55 AM,44.8,42.1,90,29.53,7.0,SE,12.7,17.3,N/A,,Overcast,140,2013-11-16 15:55:00
10:15 AM,44.8,42.8,93,29.53,7.0,SSE,15.0,-,N/A,,Overcast,150,2013-11-16 16:15:00
10:35 AM,44.8,42.8,93,29.53,7.0,SSE,9.2,-,N/A,,Overcast,150,2013-11-16 16:35:00
10:55 AM,44.8,43.2,94,29.51,5.0,SE,10.4,-,N/A,,Overcast,140,2013-11-16 16:55:00
11:15 AM,45.0,43.7,95,29.50,4.0,SE,10.4,18.4,N/A,,Overcast,140,2013-11-16 17:15:00
11:35 AM,44.6,43.9,97,29.47,3.0,SE,12.7,18.4,N/A,,Overcast,130,2013-11-16 17:35:00
11:55 AM,44.8,44.2,98,29.47,2.0,SE,11.5,-,N/A,,Overcast,140,2013-11-16 17:55:00
12:15 PM,44.6,44.4,99,29.45,4.0,SE,9.2,-,N/A,,Overcast,130,2013-11-16 18:15:00
12:35 PM,45.0,44.6,99,29.44,5.0,SE,10.4,-,N/A,,Light Drizzle,130,2013-11-16 18:35:00
12:55 PM,44.8,44.2,98,29.42,5.0,ESE,12.7,16.1,N/A,,Light Drizzle,120,2013-11-16 18:55:00
1:15 PM,44.6,44.1,98,29.41,5.0,ESE,10.4,17.3,N/A,Rain,Light Rain,120,2013-11-16 19:15:00
1:35 PM,43.9,43.7,99,29.40,4.0,ESE,12.7,-,0.03,Rain,Light Rain,110,2013-11-16 19:35:00
1:55 PM,43.7,43.7,100,29.39,2.0,ESE,10.4,-,0.03,Rain,Light Rain,110,2013-11-16 19:55:00
2:15 PM,43.7,43.7,100,29.37,1.8,ESE,12.7,-,N/A,,Unknown,120,2013-11-16 20:15:00
2:35 PM,43.9,43.9,100,29.36,1.8,ESE,10.4,-,0.01,Rain,Light Rain,120,2013-11-16 20:35:00
2:55 PM,44.2,44.2,100,29.34,5.0,ESE,10.4,-,0.01,,Light Drizzle,120,2013-11-16 20:55:00
3:15 PM,44.6,44.6,100,29.33,7.0,ESE,10.4,16.1,N/A,,Light Drizzle,120,2013-11-16 21:15:00
3:35 PM,45.1,44.8,99,29.33,10.0,SE,10.4,-,N/A,,Overcast,130,2013-11-16 21:35:00
3:55 PM,45.5,45.0,98,29.31,10.0,ESE,12.7,-,N/A,,Light Drizzle,120,2013-11-16 21:55:00
4:15 PM,45.3,45.1,99,29.30,7.0,SE,10.4,-,N/A,,Drizzle,130,2013-11-16 22:15:00
4:35 PM,45.5,45.5,100,29.28,10.0,ESE,8.1,-,N/A,,Overcast,110,2013-11-16 22:35:00
4:55 PM,45.5,45.5,100,29.27,10.0,ESE,8.1,-,N/A,Rain,Light Rain,110,2013-11-16 22:55:00
5:15 PM,45.7,45.7,100,29.27,10.0,East,3.5,-,N/A,,Overcast,90,2013-11-16 23:15:00
5:35 PM,45.9,45.9,100,29.28,10.0,Calm,Calm,-,N/A,,Overcast,0,2013-11-16 23:35:00
5:55 PM,46.0,46.0,100,29.28,10.0,East,3.5,-,N/A,,Overcast,100,2013-11-16 23:55:00
6:15 PM,46.0,46.0,100,29.29,10.0,ESE,5.8,-,0.01,Rain,Light Rain,120,2013-11-17 00:15:00
6:35 PM,46.0,46.0,100,29.28,10.0,ESE,4.6,-,0.01,,Overcast,120,2013-11-17 00:35:00
6:55 PM,46.6,46.6,100,29.28,10.0,SE,4.6,-,0.01,,Overcast,130,2013-11-17 00:55:00
7:15 PM,46.6,46.6,100,29.28,10.0,ESE,3.5,-,N/A,,Overcast,120,2013-11-17 01:15:00
7:35 PM,46.6,46.6,100,29.28,10.0,ESE,4.6,-,N/A,,Overcast,120,2013-11-17 01:35:00
7:55 PM,46.4,46.4,100,29.29,7.0,SSE,3.5,-,N/A,,Overcast,150,2013-11-17 01:55:00
8:15 PM,46.8,46.8,100,29.29,10.0,Calm,Calm,-,N/A,,Overcast,0,2013-11-17 02:15:00
8:35 PM,47.3,47.3,100,29.29,10.0,South,5.8,-,N/A,,Overcast,170,2013-11-17 02:35:00
8:55 PM,48.2,48.2,100,29.30,7.0,SSW,4.6,-,N/A,,Overcast,210,2013-11-17 02:55:00
9:15 PM,50.4,50.2,99,29.31,7.0,SW,11.5,-,N/A,,Overcast,220,2013-11-17 03:15:00
9:35 PM,49.8,49.5,99,29.32,7.0,SW,11.5,-,N/A,,Overcast,220,2013-11-17 03:35:00
9:55 PM,49.1,48.7,99,29.32,7.0,SSW,10.4,-,N/A,,Mostly Cloudy,210,2013-11-17 03:55:00
10:15 PM,48.2,47.7,98,29.33,7.0,SSW,8.1,-,N/A,,Scattered Clouds,210,2013-11-17 04:15:00
10:35 PM,47.8,47.1,97,29.33,7.0,SSW,6.9,-,N/A,,Clear,200,2013-11-17 04:35:00
10:55 PM,47.3,46.4,97,29.33,7.0,SSW,8.1,-,N/A,,Clear,200,2013-11-17 04:55:00
11:15 PM,46.8,45.9,97,29.34,7.0,South,9.2,-,N/A,,Clear,190,2013-11-17 05:15:00
11:35 PM,45.7,45.1,98,29.34,7.0,South,6.9,-,N/A,,Clear,190,2013-11-17 05:35:00
11:55 PM,44.4,44.1,99,29.34,7.0,South,5.8,-,N/A,,Clear,170,2013-11-17 05:55:00